Bonaire, Netherlands

6:19 PM AST on August 20, 2017 (GMT -0400)
Flamingo

Weather History for TNCB - March, 2012

Change the Weather History Date:

Monday, March 19, 2012

  Actual Average Record
Temperature  
Mean Temperature 80 °F -  
Max Temperature 84 °F 85 °F 89 °F (2005)
Min Temperature 76 °F 78 °F 77 °F (1997)
Cooling Degree Days 15    
Growing Degree Days 30 (Base 50)    
Moisture  
Dew Point 72 °F    
Average Humidity 76    
Maximum Humidity 83    
Minimum Humidity 64    
Precipitation  
Precipitation 0.00 in - - ()
Sea Level Pressure  
Sea Level Pressure 29.90 in    
Wind  
Wind Speed 9 mph ()    
Max Wind Speed 17 mph    
Max Gust Speed -    
Visibility 8.6 miles    
Events      
Averages and records for this station are not official NWS values.
T = Trace of Precipitation, MM = Missing Value Source: Averaged Metar Reports

Daily Weather History Graph

Daily Weather History Graph

Search for Another Location

Airport or City:

Trip Planner

Search our weather history database for the weather conditions in past years. The results will help you decide how hot, cold, wet, or windy it might be!

Date:

Astronomy

Mar. 19, 2012 Rise Set
Actual Time 6:37 AM AST 6:43 PM AST
Civil Twilight 6:16 AM AST 7:05 PM AST
Nautical Twilight 5:51 AM AST 7:29 PM AST
Astronomical Twilight 5:27 AM AST 7:54 PM AST
Moon 4:22 AM AST (3/19) 4:28 PM AST (3/19)
Length of Visible Light 12h 48m
Length of Day
12h 06m
Waning Crescent, 8% of the Moon is Illuminated
Mar 19
Waning Crescent
Mar 22
New
Mar 30
First Quarter
Apr 6
Full
Apr 13
Last Quarter

Hourly Weather History & Observations

Time (AST) Temp. Heat Index Dew Point Humidity Pressure Visibility Wind Dir Wind Speed Gust Speed Precip Events Conditions
2:00 AM 77 °F - 72 °F 81%  in - Calm Calm - -   Clear
2:00 AM 77.0 °F - 71.6 °F 83% 29.89 in - North - - N/A   Unknown
3:00 AM 77.0 °F - 71.6 °F 83% 29.86 in - Calm Calm - N/A   Unknown
4:00 AM 77.0 °F - 71.6 °F 83% 29.86 in - North - - N/A   Unknown
5:00 AM 77.0 °F - 71.6 °F 83% 29.89 in - North - - N/A   Unknown
6:00 AM 77.0 °F - 71.6 °F 83% 29.89 in - North - - N/A   Unknown
7:00 AM 77.0 °F - 71.6 °F 83% 29.92 in - North - - N/A   Unknown
8:00 AM 79 °F - 73 °F 76% 29.94 in 16 mi East 9.2 mph - -   Partly Cloudy
8:00 AM 78.8 °F - 73.4 °F 83% 29.92 in 6.2 mi East 9.2 mph - N/A   Scattered Clouds
9:00 AM 82.4 °F 88.2 °F 73.4 °F 74% 29.95 in 6.2 mi East 13.8 mph - N/A   Scattered Clouds
10:00 AM 82.4 °F 88.2 °F 73.4 °F 74% 29.95 in 6.2 mi East 13.8 mph - N/A   Mostly Cloudy
11:00 AM 83 °F - 73 °F 64% 29.98 in 16 mi East 16.1 mph - -   Mostly Cloudy
11:00 AM 84.2 °F 90.9 °F 73.4 °F 70% 29.95 in 6.2 mi East 16.1 mph - N/A   Mostly Cloudy
12:00 PM 84.2 °F 89.6 °F 71.6 °F 66% 29.95 in 6.2 mi East 16.1 mph - N/A   Mostly Cloudy
1:00 PM 84.2 °F 90.9 °F 73.4 °F 70% 29.92 in 6.2 mi East 16.1 mph - N/A   Scattered Clouds
2:00 PM 83 °F - 73 °F 64% 29.91 in 16 mi East 15.0 mph - -   Partly Cloudy
2:00 PM 82.4 °F 88.2 °F 73.4 °F 74% 29.89 in 6.2 mi East 15.0 mph - N/A   Scattered Clouds
3:00 PM 82.4 °F 87.2 °F 71.6 °F 70% 29.86 in 6.2 mi East 17.3 mph - N/A   Scattered Clouds
4:00 PM 82.4 °F 88.2 °F 73.4 °F 74% 29.86 in 6.2 mi East 13.8 mph - N/A   Scattered Clouds
5:00 PM 81 °F - 72 °F 67% 29.88 in 16 mi East 15.0 mph - -   Overcast
5:00 PM 80.6 °F 84.6 °F 71.6 °F 74% 29.86 in 6.2 mi East 15.0 mph - N/A   Scattered Clouds
6:00 PM 80.6 °F 84.6 °F 71.6 °F 74% 29.86 in 6.2 mi East 12.7 mph - N/A   Scattered Clouds
7:00 PM 78.8 °F - 71.6 °F 78% 29.89 in - North - - N/A   Unknown
8:00 PM 79 °F - 72 °F 73% 29.90 in 12 mi East 12.7 mph - -   Overcast
8:00 PM 78.8 °F - 71.6 °F 78% 29.89 in 6.2 mi East 12.7 mph - N/A   Scattered Clouds
9:00 PM 78.8 °F - 71.6 °F 78% 29.92 in 6.2 mi East 10.4 mph - N/A   Scattered Clouds
11:00 PM 78 °F - 72 °F 77%  in 6 mi Calm Calm - -   Clear
11:00 PM 78.8 °F - 71.6 °F 78% 29.92 in - North - - N/A   Unknown